Location: Newark
(31.5350°N, 35.0986°E)
Time: 22:02:59
(UTC+00:00)

SR - Pass Details

Date: 25 October 2019
Orbit: 574 x 882 km, 66.7° (Epoch: 11 November)

Event Time Altitude Azimuth Distance (km) Brightness Sun altitude
Rises 17:27:44 0° 191° (S) 2,953 - -32.7°
Reaches altitude 10° 17:29:59 10° 185° (S) 2,090 - -33.1°
Maximum altitude 17:34:34 50° 111° (ESE) 905 - -34.1°
Drops below altitude 10° 17:39:38 10° 36° (NE) 2,301 - -35.2°
Sets 17:42:12 0° 32° (NNE) 3,282 - -35.7°
